Milwaukee Condo Man

David Price | 414-224-7200

David@MilwaukeeRealtyInc.com
  1. Home
  2. All Milwaukee Condos
  3. About Milwaukee Realty Inc.
  4. Contact David Price


Condos at Blatz

270 E Highland Ave, Milwaukee, WI.





Directions: On the northeast corner of Broadway and Juneau and the southeast corner of Highland and Broadway. Enter on the west side of the building.

Milwaukee Condos @ Blatz

Enjoy your private 2-story gym, 24 hr concierge/security, an amazing roof terrace, pool area w/sauna & whirlpool, and common space to have private parties & gatherings w/friends & family. Terrific location, too! Close to many entertainment & sporting venues, restaurants & easy access to freeway. Enjoy Farmers Market in summer, ice skating at Red Arrow Park + Holiday activities. Brady St. to the north, 3rd Ward to the south. Live in the center of Milwaukees vibrant Downtown (but with less traffic!). Live at The Blatz.



Milwaukee Condos at Blatz.Blatz was built in 1901 and holds 169 condos. Features include: Clubhouse,Elevator,Exercise Room,Indoor Pool,Laundry Facilities,Near Public Transit,Sauna,Security,Whirlpool. The Heating and Cooling system is controlled by Central Air,Heat Pump. Search all Milwaukee condos for sale at Blatz below:

Click the column titles to sort.
Unit# Bedroom# BathsList PriceSq ft.Price / Sq ft.Link
411 32$298,9001,960$153View Listing
635 22$237,9001,154$206View Listing
812 22$230,0001,343$171View Listing
With Offer
212 12$184,9001,225$151View Listing
1015 22$174,9001,262$139View Listing
1037 22$174,9001,068$164View Listing
214 11$164,900900$183View Listing
With Offer



Receive E-Mail Alerts
for Blatz


Name:
Email:



Executive Summary preview for Blatz (NON-OFFICIAL).


Condos sold at blatz in the past 18 months:


Click the column titles to sort.
Sold DateUnitSOLD Price# Beds# BathsSq ft.Price / Sq ft.
2017-11-03 246 $171,500 2 2 980 sqft $175 per sqft
2017-10-06 1013 $215,000 2 2 1,188 sqft $181 per sqft
2017-09-27 211 $283,500 3 2 1,960 sqft $145 per sqft
2017-09-15 641 $178,500 2 2 1,095 sqft $163 per sqft
2017-08-15 642 $175,000 2 2 980 sqft $179 per sqft
2017-07-31 637 $255,000 2 2 1,294 sqft $197 per sqft
2017-07-28 512 $143,500 1 1 754 sqft $190 per sqft
2017-07-21 845 $178,500 2 2 980 sqft $182 per sqft
2017-07-07 1026 $275,000 2 3 2,190 sqft $126 per sqft
2017-07-07 1043 $183,500 2 2 980 sqft $187 per sqft
2017-06-29 247 $178,000 2 2 980 sqft $182 per sqft
2017-06-26 217 $115,000 1 1 946 sqft $122 per sqft
2017-06-08 314 $152,000 1 1 900 sqft $169 per sqft
2017-05-23 437 $230,000 2 2 1,294 sqft $178 per sqft
2017-04-24 916 $269,750 2 2 1,770 sqft $152 per sqft
2017-04-21 443 $170,000 2 2 980 sqft $173 per sqft
2017-04-14 613 $155,900 1 1 774 sqft $201 per sqft
2016-11-30 935 $208,905 2 2 1,120 sqft $187 per sqft
2016-10-11 426 $200,000 2 2 1,260 sqft $159 per sqft
2016-09-23 1246 $242,000 2 2 1,207 sqft $200 per sqft
2016-08-30 1032 $120,300 1 1 762 sqft $158 per sqft
2016-08-15 1031 $150,000 1 2 1,154 sqft $130 per sqft
2016-08-12 415 $140,500 1 1 907 sqft $155 per sqft
2016-08-01 413 $145,000 1 1 774 sqft $187 per sqft
2016-06-24 1242 $267,000 2 2 1,328 sqft $201 per sqft
2016-05-31 831 $206,900 2 2 1,165 sqft $178 per sqft
2016-05-13 643 $170,000 2 2 980 sqft $173 per sqft
2016-05-09 631 $159,090 1 2 956 sqft $166 per sqft
2016-04-29 937 $233,000 2 2 1,117 sqft $209 per sqft
2016-04-20 422 $137,500 1 2 895 sqft $154 per sqft
2016-04-20 446 $170,000 2 2 980 sqft $173 per sqft
2016-04-15 616 $250,000 2 2 1,770 sqft $141 per sqft
2016-04-08 113 $160,000 2 2 1,188 sqft $135 per sqft
2016-02-12 1136 $204,700 2 2 1,158 sqft $177 per sqft
2015-12-29 842 $170,000 2 2 980 sqft $173 per sqft
2015-09-04 1036 $177,000 2 2 1,158 sqft $153 per sqft
2015-09-04 841 $194,500 2 2 1,095 sqft $178 per sqft
2015-08-24 423 $218,000 2 2 1,260 sqft $173 per sqft
2015-08-10 643 $165,000 2 2 980 sqft $168 per sqft
2015-07-30 1042 $179,000 2 2 980 sqft $183 per sqft
2015-07-29 435 $142,419 2 2 1,154 sqft $123 per sqft
2015-07-14 841 $175,000 2 2 1,095 sqft $160 per sqft
2015-06-30 232 $117,000 1 1 739 sqft $158 per sqft
2015-06-29 932 $110,000 1 1 739 sqft $149 per sqft
2015-06-24 215 $120,000 1 1 907 sqft $132 per sqft
2015-06-24 514 $160,000 1 1 900 sqft $178 per sqft
2015-05-28 821 $236,000 2 2 1,260 sqft $187 per sqft
2015-05-22 421 $245,000 2 2 1,260 sqft $194 per sqft
2015-05-19 648 $179,000 2 2 980 sqft $183 per sqft
2015-05-13 915 $166,400 1 1 907 sqft $183 per sqft
2015-04-29 811 $281,000 3 2 1,960 sqft $143 per sqft
2015-04-27 836 $203,000 2 2 1,117 sqft $182 per sqft
2015-04-24 223 $187,000 2 2 1,260 sqft $148 per sqft
2015-04-17 644 $157,500 2 2 980 sqft $161 per sqft
2015-04-16 1224 $570,000 3 3 2,488 sqft $229 per sqft
2015-01-05 234 $194,500 2 2 1,069 sqft $182 per sqft
2015-01-02 837 $197,500 2 2 1,117 sqft $177 per sqft

Give David Price a call to see how these sales relate to current listings.




Stay Updated on Milwaukee Condos
Join the MLS auto-email list


Enter Your E-mail Address




How often do you want updates?

Daily Weekly



Search All Milwaukee Condos


Back to Milwaukee Condo Man

Milwaukee Realty Inc

© 2017, Milwaukee Realty Inc. | 1437 N Prospect Ave, Milwaukee, Wisconsin. 53202 | Telephone: (414) 224-7200